Weather reports worldwide

Advertisment
Brize Norton, United Kingdom (3649): temperature & dewpoint: 13.08.2018 20:00:00 - 19.08.2018 20:00:00 (BST)Brize Norton, United Kingdom (3649): temperature -20cm & temperature -100cm: 13.08.2018 20:00:00 - 19.08.2018 20:00:00 (BST)Brize Norton, United Kingdom (3649): wind speed & gusts: 13.08.2018 20:00:00 - 19.08.2018 20:00:00 (BST)Brize Norton, United Kingdom (3649): wind direction: 13.08.2018 20:00:00 - 19.08.2018 20:00:00 (BST)Brize Norton, United Kingdom (3649): reduced air pressure: 13.08.2018 20:00:00 - 19.08.2018 20:00:00 (BST)Brize Norton, United Kingdom (3649): visibility: 13.08.2018 20:00:00 - 19.08.2018 20:00:00 (BST)Brize Norton, United Kingdom (3649): sunshine duration: 13.08.2018 20:00:00 - 19.08.2018 20:00:00 (BST)Brize Norton, United Kingdom (3649): precipitation: 13.08.2018 20:00:00 - 19.08.2018 20:00:00 (BST)
Date & Time tt [°C] td [°C] tt -20cm [°C] tt -100cm [°C] ff [km/h] ff [kn] fx [km/h] fx [kn] dd ppp [hPa] vv [km] sd [min] rr [mm]
19.08.2018 20:00:00 20,5 15,8 - - 13 7 - - WSW 1018,4 10 18 0,0
19.08.2018 19:00:00 21,9 15,9 - - 13 7 - - WSW 1018,0 10 48 0,0
19.08.2018 18:00:00 21,9 15,8 - - 15 8 - - WSW 1017,9 10 30 0,0
19.08.2018 17:00:00 21,9 15,4 - - 16 9 - - W 1017,8 10 42 0,0
19.08.2018 16:00:00 22,1 15,3 - - 18 10 - - WSW 1017,8 10 54 0,0
19.08.2018 15:00:00 22,0 15,3 - - 18 10 - - WSW 1017,6 10 54 0,0
19.08.2018 14:00:00 22,6 15,3 - - 18 10 - - W 1017,4 10 36 0,0
19.08.2018 13:00:00 21,1 15,6 - - 26 14 46 25 W 1017,2 10 6 0,0
19.08.2018 12:00:00 21,0 15,7 - - 22 12 - - WSW 1017,1 10 0 0,0
19.08.2018 11:00:00 19,7 15,7 - - 18 10 - - SW 1017,1 10 0 0,0
19.08.2018 10:00:00 18,9 15,1 18,2 17,4 16 9 - - WSW 1017,0 10 0 0,0
19.08.2018 09:00:00 18,2 14,7 - - 15 8 - - SW 1016,8 10 0 0,0
19.08.2018 08:00:00 17,6 14,4 - - 18 10 - - SW 1017,0 10 0 0,0
19.08.2018 07:00:00 17,0 14,3 - - 16 9 - - SW 1017,5 10 0 0,0
19.08.2018 06:00:00 16,8 14,0 - - 15 8 - - SW 1017,7 10 0 0,0
19.08.2018 05:00:00 16,6 13,8 - - 21 11 - - SW 1018,0 10 0 0,0
19.08.2018 04:00:00 16,8 14,2 - - 18 10 - - SW 1018,9 10 0 0,0
19.08.2018 03:00:00 17,6 15,7 - - 13 7 - - SSW 1019,0 10 0 0,0
19.08.2018 02:00:00 17,5 16,4 - - 11 6 - - SSW 1019,5 8 0 0,0
19.08.2018 01:00:00 17,2 16,3 - - 11 6 - - SSW 1020,0 4,0 - 0,0
19.08.2018 00:00:00 17,7 16,2 - - 11 6 - - SSW 1020,2 7 0 0,0
18.08.2018 23:00:00 18,1 16,5 - - 9 5 - - SW 1020,5 10 0 0,0
18.08.2018 22:00:00 19,0 15,7 - - 9 5 - - WSW 1020,5 10 0 0,0
18.08.2018 21:00:00 19,1 15,3 - - 11 6 - - W 1020,6 10 0 0,0
18.08.2018 20:00:00 19,5 15,1 - - 11 6 - - WSW 1020,2 10 0 0,0
18.08.2018 19:00:00 20,1 14,9 - - 15 8 - - WSW 1020,2 10 0 0,0
18.08.2018 18:00:00 20,3 14,6 - - 11 6 - - WSW 1020,1 10 0 0,0
18.08.2018 17:00:00 20,8 14,3 - - 15 8 - - W 1020,2 10 0 0,0
18.08.2018 16:00:00 20,1 14,5 - - 15 8 - - WSW 1020,3 10 12 0,0
18.08.2018 15:00:00 20,6 14,1 - - 13 7 - - WSW 1020,3 10 18 0,0
18.08.2018 14:00:00 20,3 13,8 - - 15 8 - - WSW 1020,6 10 6 0,0
18.08.2018 13:00:00 19,5 13,3 - - 15 8 - - W 1020,8 10 0 0,0
18.08.2018 12:00:00 18,1 13,8 - - 13 7 - - WSW 1020,9 10 6 0,0
18.08.2018 11:00:00 17,7 14,0 - - 11 6 - - SW 1020,8 10 0 0,0
18.08.2018 10:00:00 16,9 14,2 18,0 17,5 11 6 - - WSW 1020,7 10 0 0,0
18.08.2018 09:00:00 16,8 14,2 - - 11 6 - - SW 1020,4 10 0 0,0
18.08.2018 08:00:00 16,5 14,4 - - 11 6 - - SSW 1020,2 10 0 0,0
18.08.2018 07:00:00 15,9 14,1 - - 8 4 - - SW 1020,0 10 0 0,0
18.08.2018 06:00:00 15,7 13,9 - - 9 5 - - SW 1019,7 10 0 0,0
18.08.2018 05:00:00 15,6 13,4 - - 9 5 - - SW 1019,6 10 0 0,0
18.08.2018 04:00:00 15,8 13,3 - - 8 4 - - SW 1019,7 10 0 0,0
18.08.2018 03:00:00 15,8 13,1 - - 9 5 - - SW 1019,9 10 0 0,0
18.08.2018 02:00:00 15,7 12,9 - - 9 5 - - SW 1020,0 10 0 0,0
18.08.2018 01:00:00 16,2 12,4 - - 11 6 - - SW 1020,4 10 - 0,0
18.08.2018 00:00:00 16,3 13,0 - - 9 5 - - SW 1020,6 10 0 0,0
17.08.2018 23:00:00 16,1 12,5 - - 11 6 - - WSW 1020,6 10 0 0,0
17.08.2018 22:00:00 16,0 12,2 - - 8 4 - - WSW 1020,4 10 0 0,0
17.08.2018 21:00:00 16,7 11,7 - - 13 7 - - W 1020,2 10 0 0,0
17.08.2018 20:00:00 17,1 11,3 - - 15 8 - - W 1020,2 10 0 0,0
17.08.2018 19:00:00 17,4 10,2 - - 13 7 - - W 1019,9 10 0 0,0
17.08.2018 18:00:00 18,5 9,7 - - 16 9 - - W 1019,8 10 18 0,0
17.08.2018 17:00:00 19,1 8,9 - - 16 9 - - W 1019,5 10 24 0,0
17.08.2018 16:00:00 19,9 8,1 - - 18 10 - - W 1019,8 10 24 0,0
17.08.2018 15:00:00 20,3 6,8 - - 21 11 - - W 1020,0 10 18 0,0
17.08.2018 14:00:00 19,9 7,4 - - 16 9 - - W 1020,2 10 42 0,0
17.08.2018 13:00:00 19,2 6,9 - - 16 9 - - WSW 1020,3 10 36 0,0
17.08.2018 12:00:00 18,6 7,5 - - 13 7 - - W 1020,2 10 30 0,0
17.08.2018 11:00:00 18,7 7,1 - - 11 6 - - WSW 1020,2 10 60 0,0
17.08.2018 10:00:00 16,4 10,3 18,0 17,7 9 5 - - W 1020,4 10 60 0,0
17.08.2018 09:00:00 15,4 10,9 - - 9 5 - - W 1019,9 10 60 0,0
17.08.2018 08:00:00 13,0 10,5 - - 5 3 - - W 1019,7 15 60 0,0
17.08.2018 07:00:00 10,3 9,6 - - 2 1 - - WSW 1019,2 10 30 0,0
17.08.2018 06:00:00 10,0 9,3 - - 5 3 - - SW 1018,6 10 0 0,0
17.08.2018 05:00:00 10,3 9,6 - - 4 2 - - W 1018,0 10 0 0,0
17.08.2018 04:00:00 10,8 10,0 - - 5 3 - - W 1017,8 10 0 0,0
17.08.2018 03:00:00 11,1 9,9 - - 5 3 - - W 1017,7 10 0 0,0
17.08.2018 02:00:00 11,5 10,1 - - 5 3 - - W 1017,6 10 0 0,0
17.08.2018 01:00:00 12,1 10,1 - - 5 3 - - W 1017,5 10 - 0,0
17.08.2018 00:00:00 13,1 10,3 - - 8 4 - - W 1017,2 10 0 0,0
16.08.2018 23:00:00 13,6 10,2 - - 8 4 - - W 1016,8 10 0 0,0
16.08.2018 22:00:00 14,7 10,0 - - 5 3 - - SSW 1016,2 10 0 0,0
16.08.2018 21:00:00 16,0 10,0 - - 5 3 - - SW 1015,5 10 0 0,0
16.08.2018 20:00:00 17,4 9,7 - - 11 6 - - W 1014,7 10 6 0,0
16.08.2018 19:00:00 18,1 9,0 - - 15 8 - - W 1014,4 10 24 0,0
16.08.2018 18:00:00 20,2 8,2 - - 16 9 - - W 1013,9 10 54 0,0
16.08.2018 17:00:00 20,5 8,1 - - 18 10 - - W 1013,2 10 36 0,0
16.08.2018 16:00:00 19,9 7,2 - - 15 8 - - WSW 1013,2 10 6 0,0
16.08.2018 15:00:00 20,6 8,5 - - 15 8 - - W 1013,1 10 42 0,0
16.08.2018 14:00:00 18,8 8,7 - - 15 8 - - WNW 1013,0 10 36 0,0
16.08.2018 13:00:00 17,8 9,5 - - 16 9 - - W 1012,9 10 30 0,0
16.08.2018 12:00:00 15,7 11,7 - - 13 7 - - W 1013,0 10 0 0,0
16.08.2018 11:00:00 14,9 13,1 - - 11 6 - - SW 1012,9 10 0 0,0
16.08.2018 10:00:00 15,3 14,0 18,5 17,7 9 5 - - WSW 1012,5 10 0 1,4
16.08.2018 09:00:00 15,7 14,8 - - 9 5 - - WSW 1012,2 8 0 1,8
16.08.2018 08:00:00 16,0 15,4 - - 5 3 - - SW 1011,8 7 0 2,0
16.08.2018 07:00:00 16,4 15,6 - - 13 7 - - W 1011,9 3,0 0 3,0
16.08.2018 06:00:00 16,8 15,7 - - 16 9 - - SSW 1011,3 10 0 1,0
16.08.2018 05:00:00 16,8 15,6 - - 16 9 - - SW 1011,7 5 0 0,2
16.08.2018 04:00:00 17,6 14,7 - - 18 10 - - SSW 1012,0 10 0 0,0
16.08.2018 03:00:00 17,7 14,5 - - 16 9 - - SW 1012,8 10 0 0,0
16.08.2018 02:00:00 18,1 15,0 - - 15 8 - - SSW 1013,2 10 0 0,0
16.08.2018 01:00:00 18,1 14,9 - - 16 9 - - SSW 1013,9 10 - 0,0
16.08.2018 00:00:00 18,0 14,5 - - 13 7 - - SSW 1014,1 10 0 0,0
15.08.2018 23:00:00 19,0 14,6 - - 15 8 - - SW 1014,6 10 0 0,0
15.08.2018 22:00:00 19,5 14,5 - - 15 8 - - SW 1014,9 10 0 0,0
15.08.2018 21:00:00 19,2 15,7 - - 9 5 - - WSW 1015,0 10 0 0,0
15.08.2018 20:00:00 20,4 14,7 - - 15 8 - - SW 1015,0 10 0 0,0
15.08.2018 19:00:00 21,3 13,8 - - 13 7 - - SW 1015,0 10 30 0,0
15.08.2018 18:00:00 22,5 13,2 - - 15 8 - - WSW 1015,3 10 24 0,0
15.08.2018 17:00:00 22,6 12,2 - - 13 7 - - WSW 1015,8 10 12 0,0
15.08.2018 16:00:00 22,3 12,7 - - 13 7 - - WSW 1016,3 10 24 0,0
15.08.2018 15:00:00 22,1 13,8 - - 16 9 - - W 1016,8 10 6 0,0
15.08.2018 14:00:00 22,4 12,9 - - 16 9 - - W 1017,2 10 6 0,0
15.08.2018 13:00:00 21,6 14,3 - - 16 9 - - W 1017,4 10 0 0,0
15.08.2018 12:00:00 20,2 15,0 - - 15 8 - - W 1017,6 10 0 0,0
15.08.2018 11:00:00 19,2 15,3 - - 15 8 - - W 1017,8 10 0 0,0
15.08.2018 10:00:00 19,5 15,2 18,4 17,7 15 8 - - WSW 1017,6 10 0 0,0
15.08.2018 09:00:00 18,7 15,1 - - 15 8 - - SW 1017,3 10 6 0,0
15.08.2018 08:00:00 17,1 14,5 - - 11 6 - - SW 1017,5 10 6 0,0
15.08.2018 07:00:00 16,9 13,7 - - 8 4 - - SW 1017,7 35 0 0,0
15.08.2018 06:00:00 16,9 13,2 - - 8 4 - - WSW 1017,6 10 0 0,0
15.08.2018 05:00:00 17,0 12,7 - - 16 9 - - W 1017,7 10 0 0,0
15.08.2018 04:00:00 17,0 13,3 - - 16 9 - - W 1017,5 10 0 0,0
15.08.2018 03:00:00 16,8 13,3 - - 11 6 - - W 1017,7 10 0 0,0
15.08.2018 02:00:00 15,9 12,8 - - 11 6 - - W 1017,9 10 0 0,0
15.08.2018 01:00:00 14,6 12,6 - - 2 1 - - WSW 1018,3 10 - 0,0
15.08.2018 00:00:00 15,2 12,8 - - 11 6 - - W 1018,3 10 0 0,0
14.08.2018 23:00:00 16,0 13,0 - - 13 7 - - WSW 1018,1 10 0 0,0
14.08.2018 22:00:00 16,7 12,8 - - 13 7 - - W 1018,0 10 0 0,0
14.08.2018 21:00:00 17,6 12,8 - - 11 6 - - WSW 1018,1 10 6 0,0
14.08.2018 20:00:00 19,0 12,2 - - 13 7 - - W 1017,6 10 60 0,0
14.08.2018 19:00:00 20,4 12,8 - - 16 9 - - WSW 1016,9 10 60 0,0
14.08.2018 18:00:00 22,5 14,0 - - 16 9 - - WSW 1016,6 10 24 0,0
14.08.2018 17:00:00 22,0 14,0 - - 15 8 - - WSW 1016,7 10 18 0,0
14.08.2018 16:00:00 22,4 14,2 - - 15 8 - - WSW 1016,8 10 6 0,0
14.08.2018 15:00:00 22,2 13,6 - - 15 8 - - W 1016,8 10 6 0,0
14.08.2018 14:00:00 22,5 12,7 - - 11 6 - - W 1016,5 10 6 0,0
14.08.2018 13:00:00 21,6 12,6 - - 11 6 - - W 1016,7 10 18 0,0
14.08.2018 12:00:00 20,9 12,1 - - 13 7 - - W 1016,6 10 6 0,0
14.08.2018 11:00:00 21,0 10,9 - - 11 6 - - W 1016,4 10 6 0,0
14.08.2018 10:00:00 19,6 11,3 18,2 17,7 11 6 - - W 1016,2 10 36 0,0
14.08.2018 09:00:00 16,8 13,4 - - 8 4 - - W 1016,1 10 0 0,0
14.08.2018 08:00:00 15,3 13,2 - - 4 2 - - W 1015,9 10 0 0,0
14.08.2018 07:00:00 14,3 12,7 - - 4 2 - - W 1015,6 10 0 0,0
14.08.2018 06:00:00 13,9 12,4 - - 4 2 - - WSW 1015,1 10 0 0,0
14.08.2018 05:00:00 13,3 11,9 - - 5 3 - - W 1014,8 10 0 0,0
14.08.2018 04:00:00 12,4 11,0 - - 4 2 - - SW 1014,6 10 0 0,0
14.08.2018 03:00:00 13,4 11,5 - - 8 4 - - W 1014,2 10 0 0,0
14.08.2018 02:00:00 14,2 11,8 - - 5 3 - - WNW 1013,9 10 0 0,0
14.08.2018 01:00:00 15,3 11,9 - - 9 5 - - NW 1013,4 10 - 0,0
14.08.2018 00:00:00 16,3 12,0 - - 11 6 - - NW 1012,8 10 0 0,0
13.08.2018 23:00:00 17,8 14,8 - - 8 4 - - W 1012,2 10 0 0,0
13.08.2018 22:00:00 17,5 14,6 - - 5 3 - - W 1011,7 10 0 0,0
13.08.2018 21:00:00 18,6 14,7 - - 9 5 - - NW 1011,1 10 0 0,0
13.08.2018 20:00:00 19,4 14,7 - - 16 9 - - NW 1010,3 10 0 0,0

tt = temperature
td = dewpoint
tt -20cm = temperature -20cm
tt -100cm = temperature -100cm
ff = wind speed
fx = gusts
dd = wind direction
ppp = reduced air pressure
vv = visibility
sd = sunshine duration
rr = precipitation

Next stations